Simultaneous Nadir Overpasses (SNOs) Predictions

Prediction of SNOs between NOAA-20 and METOP-C Satellite Orbit:

Table of predicted SNOs for the next 14.0 days since TLE Epoch: 11/22/2020
Index Date (NOAA-20) Time (NOAA-20) Lat,Lon (NOAA-20) SZA (NOAA-20 ) Date (METOP-C) Time (METOP-C) Lat,Lon (METOP-C) SZA (METOP-C ) Distance(km) Time Diff (sec)
1 12/05/2020 14:41:42 -73.33, 130.05 84.18 12/05/2020 14:42:49 -73.30, 132.78 84.28 87.31 67
2 12/05/2020 15:32:25 73.19, -62.33 95.68 12/05/2020 15:33:33 73.12, -60.29 95.55 66.30 68
3 12/05/2020 16:23:06 -73.03, 105.32 84.48 12/05/2020 16:24:17 -72.98, 106.74 84.58 46.40 71
4 12/05/2020 17:13:49 72.89, -87.06 95.38 12/05/2020 17:15:01 72.80, -86.32 95.26 26.50 72
5 12/05/2020 18:04:31 -72.78, 80.47 84.74 12/05/2020 18:05:44 -72.71, 80.83 84.83 14.30 73
6 12/05/2020 18:55:14 72.64,-111.92 95.12 12/05/2020 18:56:26 72.63,-112.01 95.10 3.34 72
7 12/05/2020 19:45:58 -72.64, 55.40 84.89 12/05/2020 19:47:07 -72.64, 55.35 84.89 2.00 69
8 12/05/2020 20:36:44 72.64,-137.30 95.13 12/05/2020 20:37:47 72.66,-137.28 95.14 1.78 63
9 12/05/2020 21:27:28 -72.64, 30.02 84.87 12/05/2020 21:28:29 -72.62, 29.97 84.90 2.75 61
10 12/05/2020 22:18:14 72.65,-162.68 95.15 12/05/2020 22:19:09 72.64,-162.66 95.13 1.10 55
11 12/05/2020 23:08:58 -72.64, 4.64 84.86 12/05/2020 23:09:50 -72.65, 4.69 84.86 2.01 52
12 12/05/2020 23:59:43 72.60, 172.04 95.10 12/06/2020 00:00:31 72.62, 171.96 95.12 3.47 48
